Regional Weather Roundup
Issued by NWS

Home | Current Version | Previous Version | Graphics & Text | Print | Product List | Glossary On
Versions: 1 2 3 4 5 6 7 8 9 10 11 12 13 14 15 16 17 18 19 20 21 22 23 24 25 26 27 28 29 30 31 32 33 34 35 36 37 38 39 40 41 42 43 44 45 46 47 48 49 50
000
ASUS43 KMPX 041401
RWRMN
WEATHER ROUNDUP FOR MINNESOTA
NATIONAL WEATHER SERVICE TWIN CITIES/CHANHASSEN MN
900 AM CDT TUE AUG 04 2015


NOTE: "FAIR" INDICATES FEW OR NO CLOUDS BELOW 12,000 FEET WITH NO
SIGNIFICANT WEATHER AND/OR OBSTRUCTIONS TO VISIBILITY. N/A MEANS
CURRENT SKY AND/OR WEATHER CONDITIONS ARE NOT AVAILABLE.

MNZ060>063-068>070-041500-
   Twin Cities Metro

CITY           SKY/WX    TMP DP  RH WIND       PRES   REMARKS
TWIN CITIES    MOSUNNY   70  55  59 W7        30.02R
ST PAUL        SUNNY     69  57  65 SW8       30.02R
CRYSTAL        SUNNY     70  55  59 SW7       30.01R
BLAINE         SUNNY     70  54  56 W5          N/A
LAKEVILLE      SUNNY     66  57  72 SW5       30.03R
EDEN PRAIRIE   SUNNY     67  58  72 SW6       30.02R
SOUTH ST PAUL  SUNNY     68  55  63 W7        30.02R
LAKE ELMO      FAIR      68  59  73 W6        30.03R
$$
MNZ001>005-007-008-013>017-022>024-027-028-041500-
   Northwest Minnesota

CITY           SKY/WX    TMP DP  RH WIND       PRES   REMARKS
BEMIDJI        SUNNY     62  54  75 N6        30.01S
HALLOCK        SUNNY     61  54  77 N3        30.02F
ROSEAU         SUNNY     59  54  82 N5        30.02R
WARROAD        SUNNY     59  54  82 N7        30.01S
THIEF RVR FALL SUNNY     63  54  72 N6        30.02S
CROOKSTON      SUNNY     63  54  72 N5        30.03R
FOSSTON        SUNNY     61  57  88 CALM      30.03R
DETROIT LAKES  SUNNY     64  50  59 NW5       30.04R
MOORHEAD       SUNNY     61  54  77 SW3       30.04R
PARK RAPIDS    SUNNY     65  51  60 NW7       30.01R
MAHNOMEN       FAIR      59  54  85 CALM      30.02R
$$
MNZ006-009>011-018-025>026-041500-
   North Central Minnesota

CITY           SKY/WX    TMP DP  RH WIND       PRES   REMARKS
BAUDETTE       MOSUNNY   61  51  70 N12       29.98R
FLAG ISLAND    MOSUNNY   57  48  72 N12       29.99S
INTL FALLS     MOSUNNY   59  51  75 N12       29.97R
WASKISH        MOSUNNY   63  55  77 W3        30.00R
LONGVILLE      SUNNY     63  55  77 NW6       29.99S
GRAND RAPIDS   SUNNY     63  54  72 W7        30.00R
CRANE LAKE     CLOUDY    55  52  88 N5        29.98R
ORR            CLOUDY    57  54  88 CALM      29.95R
COOK           MOSUNNY   57  55  94 NW3       29.97R
WALKER         FAIR      58  52  79 CALM      30.00S
$$
MNZ012-019>021-037-041500-
   Northeast Minnesota

CITY           SKY/WX    TMP DP  RH WIND       PRES   REMARKS
DULUTH         SUNNY     63  52  67 NW6       29.97R
ELY            CLOUDY    57  54  88 NW3       29.95R
HIBBING        MOSUNNY   63  53  70 NW8       29.98R
EVELETH        MOSUNNY   59  50  72 NW3       29.98R
DULUTH HARBOR  SUNNY     64  55  72 NW5       29.97R
TWO HARBORS    SUNNY     66  57  72 W6        29.94R
SILVER BAY     SUNNY     64  55  72 NW3       29.93R
GRAND MARAIS     N/A     57  50  77 S3        29.92R
G MARAIS ARPRT PTSUNNY   57  48  72 CALM      29.94R
$$
MNZ029>031-032-039>041-046>048-054>057-064-041500-
   West Central Minnesota

CITY           SKY/WX    TMP DP  RH WIND       PRES   REMARKS
FERGUS FALLS   SUNNY     63  54  72 NW5       30.03S
WHEATON        MOSUNNY   63  55  77 CALM      30.04S
MORRIS         MOSUNNY   66  57  72 CALM      30.02S
ALEXANDRIA     SUNNY     68  53  58 W8        30.05S
ELBOW LAKE     FAIR      65  54  67 NW3       30.03S
WADENA         SUNNY     63  55  77 SW6       30.02R
GLENWOOD       SUNNY     66  55  68 W8        30.04S
APPLETON       MOSUNNY   66  55  68 SW3       30.02S
BENSON         MOSUNNY   64  55  72 CALM      30.03S
ORTONVILLE     MOSUNNY   64  54  68 SW5       30.02S
MADISON        PTSUNNY   64  55  72 SW5       30.03S
WILLMAR        FAIR      64  55  72 W5        30.05S
$$
MNZ033>034-036-042>043-049>051-058-059-041500-
   Central Minnesota

CITY           SKY/WX    TMP DP  RH WIND       PRES   REMARKS
ST CLOUD       SUNNY     67  53  61 W5        30.02S
SAUK CENTRE    FAIR      64  55  71 W8        30.03F
PAYNESVILLE    SUNNY     64  55  73 SW9       30.04S
AITKIN         SUNNY     64  55  72 CALM      29.99R
PINE RIVER     SUNNY     63  54  72 CALM      30.03S
BRAINERD       SUNNY     66  50  56 W7        30.02R
STAPLES        SUNNY     64  55  72 SW8       30.02R
LONG PRAIRIE   FAIR      63  54  72 SW6       30.04S
LITCHFIELD     SUNNY     66  55  68 W6        30.04R
BUFFALO        SUNNY     66  54  63 W5        30.04R
$$
MNZ037-044-045-052-053-041500-
   East Central Minnesota

CITY           SKY/WX    TMP DP  RH WIND       PRES   REMARKS
PRINCETON      SUNNY     66  55  68 CALM      30.02S
MORA           SUNNY     63  55  77 W3        30.03R
CAMBRIDGE      SUNNY     66  54  63 W5        30.00S
RUSH CITY      SUNNY     64  56  76 W5        30.02R
MOOSE LAKE     SUNNY     63  54  72 CALM      29.98R
HINCKLEY       FAIR      63  55  77 CALM      30.00R
CLOQUET        SUNNY     63  52  67 W3        29.98R
MCGREGOR       SUNNY     63  54  72 NW3       30.01R
$$
MNZ071>073-080-081-089-090-097-098-041500-
   Southwest Minnesota

CITY           SKY/WX    TMP DP  RH WIND       PRES   REMARKS
MONTEVIDEO     PTSUNNY   68  61  77 CALM      30.04F
GRANITE FALLS  PTSUNNY   64  58  81 S3        30.04F
CANBY          PTSUNNY   68  54  60 SW6       30.05R
MARSHALL       PTSUNNY   68  54  60 SW7       30.05S
REDWOOD FALLS  PTSUNNY   68  53  58 SW7       30.03F
OLIVIA         PTSUNNY   61  54  77 SW3       30.03S
PIPESTONE      CLOUDY    64  55  72 CALM      30.06R
WINDOM         PTSUNNY   64  57  77 CALM      30.05S
WORTHINGTON    CLOUDY    64  55  72 SE3       30.06S
JACKSON        CLOUDY    68  55  64 CALM      30.06S
SLAYTON        CLOUDY    64  58  81 CALM      30.07R
$$
MNZ065>067-074>077-082>085-091>093-041500-
   South Central Minnesota

CITY           SKY/WX    TMP DP  RH WIND       PRES   REMARKS
MANKATO        MOSUNNY   63  54  72 W3        30.04F
NEW ULM        MOSUNNY   64  57  77 CALM      30.04S
ST JAMES       PTSUNNY   66  59  77 CALM      30.05S
FAIRMONT       PTSUNNY   64  55  72 CALM      30.05R
GLENCOE        MOSUNNY   63  57  80 SW6       30.04R
FARIBAULT      MOSUNNY   64  61  88 CALM      30.04S
OWATONNA       MOSUNNY   63  55  77 CALM      30.05R
WASECA         MOSUNNY   63  55  77 W5        30.06S
ALBERT LEA     PTSUNNY   68  57  68 CALM      30.04S
$$
MNZ078>079-086>088-094>096-041500-
   Southeast Minnesota

CITY           SKY/WX    TMP DP  RH WIND       PRES   REMARKS
ROCHESTER      MOSUNNY   66  58  75 SW6       30.05R
RED WING       SUNNY     66  55  68 W3        30.01R
STANTON        SUNNY     65  58  80 S6        30.03R
DODGE CENTER   MOSUNNY   64  57  77 SW5       30.04S
WINONA         SUNNY     66  57  72 CALM      30.02R
AUSTIN         PTSUNNY   66  55  68 CALM      30.04S
PRESTON        MOSUNNY   65  52  61 CALM      30.04S
$$
ABBREVIATIONS USED IN REMARKS
   TC - TEMPERATURES IN CELSIUS
  WCI - WIND CHILL INDEX
   HX - HEAT INDEX
  VSB - VISIBILITY
$$


USA.gov is the U.S. government's official web portal to all federal, state and local government web resources and services.